Location: Coed Ely
(51.5661°N, 3.4150°W)
Time: 23:37:25
(UTC+00:00)

Cosmos 2297 Rocket - Pass Details

Date: 28 January 2021
Orbit: 841 x 842 km, 71.0° (Epoch: 28 February)

Event Time Altitude Azimuth Distance (km) Brightness Sun altitude
Rises 18:12:55 0° 302° (WNW) 3,404 6.1 -11.9°
Reaches altitude 10° 18:17:54 10° 340° (NNW) 2,470 4.7 -12.7°
Maximum altitude 18:19:07 11° 353° (N) 2,426 4.5 -12.8°
Drops below altitude 10° 18:20:19 10° 5° (N) 2,471 4.5 -13.0°
Enters shadow 18:23:03 - 29° (NNE) 2,865 4.6 -13.4°
